Tracking 19832 objects as of 24-Aug-2019
HD Live streaming from Space Station
objects crossing your sky now

FLOCK 3R 16

Track FLOCK 3R 16 now!
10-day predictions
FLOCK 3R 16 is classified as:


NORAD ID: 43735
Int'l Code: 2018-096S
Perigee: 474.0 km
Apogee: 506.5 km
Inclination: 97.5 °
Period: 94.3 minutes
Semi major axis: 6861 km
RCS: Unknown
Launch date: November 29, 2018
Source: United States (US)
Launch site: SRIHARIKOTA (SRI)
aabbcc
Your satellite tracking list
Your tracking list is empty




NASA's NSSDC Master Catalog

Two Line Element Set (TLE):
1 43735U 18096S   19236.73677085  .00001212  00000-0  47433-4 0  9991
2 43735  97.4565 306.9568 0023625 101.0674 259.3224 15.27561247 40993
Source of the keplerian elements: AFSPC